Regional Weather Roundup
Issued by NWS

Home | Current Version | Previous Version | Graphics & Text | Print | Product List | Glossary On
Versions: 1 2 3 4 5 6 7 8 9 10 11 12 13 14 15 16 17 18 19 20 21 22 23 24 25 26 27 28 29 30 31 32 33 34 35 36 37 38 39 40 41 42 43 44 45 46 47 48 49 50
000
ASUS43 KFSD 261010
RWRSD

WEATHER ROUNDUP FOR SOUTH DAKOTA
NATIONAL WEATHER SERVICE SIOUX FALLS SD
500 AM CDT FRI AUG 26 2016

NOTE: "FAIR" INDICATES FEW OR NO CLOUDS BELOW 12,000 FEET WITH NO
SIGNIFICANT WEATHER AND/OR OBSTRUCTIONS TO VISIBILITY.


SDZ001>005-009-010-012>017-261100-
NORTHWEST AND NORTH CENTRAL SOUTH DAKOTA

CITY           SKY/WX    TMP DP  RH WIND       PRES   REMARKS
BUFFALO          N/A     52  42  69 SE9       30.08F
FAITH            N/A     50  45  83 S12       30.15F
MOBRIDGE       FAIR      52  47  83 SE6       30.13F
$$

SDZ012>016-024>037-041>051-057-063-072>074-261100-
SOUTHWEST AND SOUTH CENTRAL SOUTH DAKOTA

CITY           SKY/WX    TMP DP  RH WIND       PRES   REMARKS
RAPID CTY ARPT LGT RAIN  53  51  93 S5        30.18F
PIERRE         MOCLDY    48  46  93 CALM      30.16R
CUSTER         CLOUDY    49  45  86 N3        30.23R
ELLSWORTH AFB  LGT RAIN  53  53 100 W8        30.18S
PHILIP         LGT RAIN  56  50  80 CALM      30.18S
PINE RIDGE     CLOUDY    56  48  74 E7        30.17F
WINNER         PTSUNNY   54  49  83 SE3       30.18S
$$

SDZ004>011-016>023-039-040-261100-
NORTHEAST SOUTH DAKOTA

CITY           SKY/WX    TMP DP  RH WIND       PRES   REMARKS
ABERDEEN       FAIR      45  43  93 S7        30.15F
WATERTOWN      FAIR      49  47  93 S3        30.17S
BROOKINGS      FAIR      48  48 100 CALM      30.18S
SISSETON         N/A     50  48  93 NE6       30.13S
$$

SDZ017-020-022-023-036>040-048>070-261100-
SOUTHEAST SOUTH DAKOTA

CITY           SKY/WX    TMP DP  RH WIND       PRES   REMARKS
SIOUX FALLS    FAIR      52  51  97 CALM      30.17S
HURON          FAIR      48  45  89 CALM      30.17S
CHAMBERLAIN    CLOUDY    48  46  94 CALM      30.18R
MITCHELL       FAIR      50  48  93 CALM      30.18S
YANKTON        FAIR      52  46  82 NW6       30.15S
$$

ABBREVIATIONS USED IN REMARKS
   TC - TEMPERATURE IN CELSIUS
  WCI - WIND CHILL INDEX
   HX - HEAT INDEX
  VSB - VISIBILITY





USA.gov is the U.S. government's official web portal to all federal, state and local government web resources and services.